Weather in Zelenoborsk

Russia / Komi Republic     64°28′46″N   55°17′44″E
temp.,
°C
wind,
m/s
gust,
m/s
humid.,
%
clouds,
%
prec.,
mm/h
press.,
hPa
HPBL,
m
13 may, thu
thu1300:00+11n267879 0.0 1024342
03:00+8nne258669 0.0 1025145
06:00+10ene227217 0.0 1026376
09:00+14se22565 0.0 1025618
12:00+19s24481 0.0 10231040
15:00+24sw36410 0.0 10201867
18:00+23sw25453 0.0 1018128
21:00+17sw311610 0.0 1017209
14 may, fri
fri1400:00+16sw412600 0.0 1016270
03:00+16wsw412655 0.0 1015304
06:00+19wsw311589 0.0 1014484
09:00+23w484499 0.1 10141312
12:00+25w4835100 0.0 10122953
15:00+15wsw61386100 2.3 1013545
18:00+15nnw2588100 3.3 1012183
21:00+14w1294100 3.9 101227
15 may, sat
sat1500:00+13wsw249664 0.6 101191
03:00+12w3996100 0.8 1012390
06:00+12ne2287100 0.1 1014264
09:00+13ne1181100 0.3 1014392
12:00+16ne3271100 0.3 1014482
15:00+15nne2370100 0.4 1015613
18:00+12ne337999 0.0 1015284
21:00+9ene2488100 0.0 1015177
16 may, sun
sun1600:00+8e2493100 0.4 1013132
03:00+8ene3794100 1.3 1011160
06:00+10e31095100 4.1 1008332
09:00+11e2798100 10.7 1005282
12:00+15wnw2686100 0.6 1005384
15:00+20wnw386419 1.6 10031079
18:00+13nnw3595100 13.8 1003166
21:00+11wnw1297100 14.9 1004121
17 may, mon
mon1700:00+12sw1398100 1.3 1004104
03:00+8nne3796100 6.0 1006322
06:00+6nne41093100 2.8 1008517
09:00+8n4879100 3.6 1011701
12:00+12n5757100 0.0 10141272
15:00+13n465099 0.0 10161373
18:00+12n2455100 0.0 1018515
21:00+9nne1166100 0.0 101910